PRIVATE WETTERSTATION BILLIGHEIM-ALLFELD                       ZURCK
Wetterdaten: Freitag, 14.01.2022
Datum Zeit Temp. A. Temp. A. min Temp. A. max Feuchte A. Luftdruck Regen Wind Richtung Richtung Sonnenschein ET Solar Taupunkt Windchill Windben Empfang
14.01.2022 00:00 -2,3 C -2,3 C -2,2 C 92 % 1038,4 hPa 0,0 l/m 0,0 km/h (0 Bft) N 0 0 min 0,000 mm 0 W/m -3,4 C -2,3 C 0,0 km/h (0 Bft) 100 %
14.01.2022 00:10 -2,3 C -2,3 C -2,3 C 92 % 1038,3 hPa 0,0 l/m 0,0 km/h (0 Bft) N 0 0 min 0,000 mm 0 W/m -3,4 C -2,3 C 0,0 km/h (0 Bft) 100 %
14.01.2022 00:20 -2,3 C -2,3 C -2,3 C 92 % 1038,2 hPa 0,0 l/m 0,0 km/h (0 Bft) N 0 0 min 0,000 mm 0 W/m -3,4 C -2,3 C 0,0 km/h (0 Bft) 100 %
14.01.2022 00:30 -2,3 C -2,3 C -2,3 C 92 % 1038,1 hPa 0,0 l/m 0,0 km/h (0 Bft) N 0 0 min 0,000 mm 0 W/m -3,4 C -2,3 C 0,0 km/h (0 Bft) 100 %
14.01.2022 00:40 -2,3 C -2,3 C -2,3 C 92 % 1038,1 hPa 0,0 l/m 0,0 km/h (0 Bft) N 0 0 min 0,000 mm 0 W/m -3,4 C -2,3 C 0,0 km/h (0 Bft) 100 %
14.01.2022 00:50 -2,4 C -2,4 C -2,3 C 93 % 1038,1 hPa 0,0 l/m 0,0 km/h (0 Bft) N 0 0 min 0,000 mm 0 W/m -3,4 C -2,4 C 0,0 km/h (0 Bft) 100 %
14.01.2022 01:00 -2,6 C -2,6 C -2,4 C 92 % 1038,0 hPa 0,0 l/m 0,0 km/h (0 Bft) N 0 0 min 0,000 mm 0 W/m -3,7 C -2,6 C 0,0 km/h (0 Bft) 100 %
14.01.2022 01:10 -2,6 C -2,6 C -2,6 C 92 % 1038,0 hPa 0,0 l/m 0,0 km/h (0 Bft) N 0 0 min 0,000 mm 0 W/m -3,7 C -2,6 C 0,0 km/h (0 Bft) 100 %
14.01.2022 01:20 -2,7 C -2,7 C -2,6 C 92 % 1038,0 hPa 0,0 l/m 0,0 km/h (0 Bft) N 0 0 min 0,000 mm 0 W/m -3,8 C -2,7 C 0,0 km/h (0 Bft) 100 %
14.01.2022 01:30 -2,7 C -2,7 C -2,6 C 92 % 1037,8 hPa 0,0 l/m 0,0 km/h (0 Bft) N 0 0 min 0,000 mm 0 W/m -3,8 C -2,7 C 0,0 km/h (0 Bft) 100 %
14.01.2022 01:40 -2,7 C -2,7 C -2,7 C 92 % 1037,7 hPa 0,0 l/m 0,0 km/h (0 Bft) N 0 0 min 0,000 mm 0 W/m -3,8 C -2,7 C 0,0 km/h (0 Bft) 100 %
14.01.2022 01:50 -2,7 C -2,8 C -2,7 C 92 % 1037,7 hPa 0,0 l/m 0,0 km/h (0 Bft) N 0 0 min 0,000 mm 0 W/m -3,8 C -2,7 C 0,0 km/h (0 Bft) 100 %
14.01.2022 02:00 -2,7 C -2,7 C -2,7 C 92 % 1037,7 hPa 0,0 l/m 0,0 km/h (0 Bft) N 0 0 min 0,000 mm 0 W/m -3,8 C -2,7 C 0,0 km/h (0 Bft) 100 %
14.01.2022 02:10 -2,6 C -2,7 C -2,6 C 92 % 1037,7 hPa 0,0 l/m 0,0 km/h (0 Bft) N 0 0 min 0,000 mm 0 W/m -3,7 C -2,6 C 0,0 km/h (0 Bft) 100 %
14.01.2022 02:20 -2,7 C -2,7 C -2,6 C 92 % 1037,6 hPa 0,0 l/m 0,0 km/h (0 Bft) N 0 0 min 0,000 mm 0 W/m -3,8 C -2,7 C 0,0 km/h (0 Bft) 100 %
14.01.2022 02:30 -2,7 C -2,7 C -2,7 C 92 % 1037,5 hPa 0,0 l/m 0,0 km/h (0 Bft) N 0 0 min 0,000 mm 0 W/m -3,8 C -2,7 C 0,0 km/h (0 Bft) 100 %
14.01.2022 02:40 -2,7 C -2,8 C -2,7 C 92 % 1037,5 hPa 0,0 l/m 0,0 km/h (0 Bft) N 0 0 min 0,000 mm 0 W/m -3,8 C -2,7 C 0,0 km/h (0 Bft) 100 %
14.01.2022 02:50 -2,4 C -2,7 C -2,4 C 92 % 1037,5 hPa 0,0 l/m 0,0 km/h (0 Bft) N 0 0 min 0,000 mm 0 W/m -3,5 C -2,4 C 0,0 km/h (0 Bft) 100 %
14.01.2022 03:00 -2,3 C -2,4 C -2,3 C 92 % 1037,4 hPa 0,0 l/m 0,0 km/h (0 Bft) N 0 0 min 0,000 mm 0 W/m -3,4 C -2,3 C 0,0 km/h (0 Bft) 100 %
14.01.2022 03:10 -2,4 C -2,4 C -2,3 C 92 % 1037,4 hPa 0,0 l/m 0,0 km/h (0 Bft) N 0 0 min 0,000 mm 0 W/m -3,5 C -2,4 C 0,0 km/h (0 Bft) 100 %
14.01.2022 03:20 -2,5 C -2,6 C -2,4 C 92 % 1037,4 hPa 0,0 l/m 0,0 km/h (0 Bft) N 0 0 min 0,000 mm 0 W/m -3,6 C -2,5 C 0,0 km/h (0 Bft) 90 %
14.01.2022 03:30 -2,5 C -2,5 C -2,4 C 92 % 1037,2 hPa 0,0 l/m 0,0 km/h (0 Bft) N 0 0 min 0,000 mm 0 W/m -3,6 C -2,5 C 0,0 km/h (0 Bft) 100 %
14.01.2022 03:40 -2,5 C -2,5 C -2,5 C 92 % 1037,0 hPa 0,0 l/m 0,0 km/h (0 Bft) N 0 0 min 0,000 mm 0 W/m -3,6 C -2,5 C 0,0 km/h (0 Bft) 100 %
14.01.2022 03:50 -2,6 C -2,6 C -2,5 C 92 % 1036,9 hPa 0,0 l/m 0,0 km/h (0 Bft) N 0 0 min 0,000 mm 0 W/m -3,7 C -2,6 C 0,0 km/h (0 Bft) 100 %
14.01.2022 04:00 -2,7 C -2,7 C -2,6 C 92 % 1036,9 hPa 0,0 l/m 0,0 km/h (0 Bft) N 0 0 min 0,000 mm 0 W/m -3,8 C -2,7 C 0,0 km/h (0 Bft) 100 %
14.01.2022 04:10 -2,7 C -2,7 C -2,7 C 92 % 1036,8 hPa 0,0 l/m 0,0 km/h (0 Bft) N 0 0 min 0,000 mm 0 W/m -3,8 C -2,7 C 0,0 km/h (0 Bft) 100 %
14.01.2022 04:20 -2,8 C -2,8 C -2,7 C 92 % 1036,8 hPa 0,0 l/m 0,0 km/h (0 Bft) N 0 0 min 0,000 mm 0 W/m -3,9 C -2,8 C 0,0 km/h (0 Bft) 100 %
14.01.2022 04:30 -2,8 C -2,8 C -2,8 C 92 % 1036,8 hPa 0,0 l/m 0,0 km/h (0 Bft) N 0 0 min 0,000 mm 0 W/m -3,9 C -2,8 C 0,0 km/h (0 Bft) 100 %
14.01.2022 04:40 -2,7 C -2,8 C -2,7 C 92 % 1036,8 hPa 0,0 l/m 0,0 km/h (0 Bft) N 0 0 min 0,000 mm 0 W/m -3,8 C -2,7 C 0,0 km/h (0 Bft) 100 %
14.01.2022 04:50 -2,8 C -2,8 C -2,7 C 92 % 1036,7 hPa 0,0 l/m 0,0 km/h (0 Bft) N 0 0 min 0,000 mm 0 W/m -3,9 C -2,8 C 0,0 km/h (0 Bft) 100 %
14.01.2022 05:00 -2,8 C -2,9 C -2,8 C 92 % 1036,7 hPa 0,0 l/m 0,0 km/h (0 Bft) N 0 0 min 0,000 mm 0 W/m -3,9 C -2,8 C 0,0 km/h (0 Bft) 100 %
14.01.2022 05:10 -2,9 C -2,9 C -2,8 C 92 % 1036,7 hPa 0,0 l/m 0,0 km/h (0 Bft) N 0 0 min 0,000 mm 0 W/m -4,0 C -2,9 C 0,0 km/h (0 Bft) 100 %
14.01.2022 05:20 -3,0 C -3,0 C -2,9 C 92 % 1036,6 hPa 0,0 l/m 0,0 km/h (0 Bft) N 0 0 min 0,000 mm 0 W/m -4,1 C -3,0 C 0,0 km/h (0 Bft) 100 %
14.01.2022 05:30 -2,9 C -3,0 C -2,9 C 92 % 1036,4 hPa 0,0 l/m 0,0 km/h (0 Bft) N 0 0 min 0,000 mm 0 W/m -4,0 C -2,9 C 0,0 km/h (0 Bft) 97 %
14.01.2022 05:40 -2,9 C -2,9 C -2,9 C 92 % 1036,4 hPa 0,0 l/m 0,0 km/h (0 Bft) N 0 0 min 0,000 mm 0 W/m -4,0 C -2,9 C 0,0 km/h (0 Bft) 98 %
14.01.2022 05:50 -2,8 C -2,9 C -2,7 C 92 % 1036,5 hPa 0,0 l/m 0,0 km/h (0 Bft) N 0 0 min 0,000 mm 0 W/m -3,9 C -2,8 C 0,0 km/h (0 Bft) 97 %
14.01.2022 06:00 -2,7 C -2,7 C -2,7 C 92 % 1036,3 hPa 0,0 l/m 0,0 km/h (0 Bft) W-SW 247 0 min 0,000 mm 0 W/m -3,8 C -2,7 C 3,2 km/h (1 Bft) 98 %
14.01.2022 06:10 -2,8 C -2,8 C -2,7 C 92 % 1036,5 hPa 0,0 l/m 0,0 km/h (0 Bft) N 0 0 min 0,000 mm 0 W/m -3,9 C -2,8 C 0,0 km/h (0 Bft) 97 %
14.01.2022 06:20 -2,9 C -2,9 C -2,8 C 92 % 1036,3 hPa 0,0 l/m 0,0 km/h (0 Bft) N 0 0 min 0,000 mm 0 W/m -4,0 C -2,9 C 0,0 km/h (0 Bft) 98 %
14.01.2022 06:30 -2,9 C -2,9 C -2,8 C 92 % 1036,4 hPa 0,0 l/m 0,0 km/h (0 Bft) N 0 0 min 0,000 mm 0 W/m -4,0 C -2,9 C 0,0 km/h (0 Bft) 97 %
14.01.2022 06:40 -3,0 C -3,0 C -2,8 C 92 % 1036,3 hPa 0,0 l/m 0,0 km/h (0 Bft) N 0 0 min 0,000 mm 0 W/m -4,1 C -3,0 C 0,0 km/h (0 Bft) 97 %
14.01.2022 06:50 -3,1 C -3,1 C -3,0 C 92 % 1036,2 hPa 0,0 l/m 0,0 km/h (0 Bft) N 0 0 min 0,000 mm 0 W/m -4,2 C -3,1 C 0,0 km/h (0 Bft) 98 %
14.01.2022 07:00 -3,2 C -3,2 C -3,1 C 92 % 1036,0 hPa 0,0 l/m 0,0 km/h (0 Bft) N 0 0 min 0,000 mm 0 W/m -4,3 C -3,2 C 0,0 km/h (0 Bft) 97 %
14.01.2022 07:10 -3,0 C -3,2 C -3,0 C 92 % 1036,0 hPa 0,0 l/m 0,0 km/h (0 Bft) N 0 0 min 0,000 mm 0 W/m -4,1 C -3,0 C 0,0 km/h (0 Bft) 98 %
14.01.2022 07:20 -2,9 C -3,0 C -2,9 C 92 % 1036,1 hPa 0,0 l/m 0,0 km/h (0 Bft) N 0 0 min 0,000 mm 0 W/m -4,0 C -2,9 C 0,0 km/h (0 Bft) 97 %
14.01.2022 07:30 -2,8 C -2,9 C -2,8 C 92 % 1036,1 hPa 0,0 l/m 0,0 km/h (0 Bft) N 0 0 min 0,000 mm 0 W/m -3,9 C -2,8 C 0,0 km/h (0 Bft) 98 %
14.01.2022 07:40 -2,0 C -2,8 C -2,0 C 92 % 1036,0 hPa 0,0 l/m 1,6 km/h (1 Bft) W-SW 247 0 min 0,000 mm 0 W/m -3,1 C -2,0 C 4,8 km/h (1 Bft) 97 %
14.01.2022 07:50 -1,7 C -2,0 C -1,7 C 92 % 1036,0 hPa 0,0 l/m 0,0 km/h (0 Bft) W-SW 247 0 min 0,000 mm 0 W/m -2,8 C -1,7 C 4,8 km/h (1 Bft) 88 %
14.01.2022 08:00 -1,7 C -1,8 C -1,7 C 92 % 1036,1 hPa 0,0 l/m 0,0 km/h (0 Bft) N 0 0 min 0,000 mm 0 W/m -2,8 C -1,7 C 0,0 km/h (0 Bft) 98 %
14.01.2022 08:10 -1,7 C -1,7 C -1,7 C 92 % 1036,1 hPa 0,0 l/m 0,0 km/h (0 Bft) SW 225 0 min 0,000 mm 0 W/m -2,8 C -1,7 C 6,4 km/h (2 Bft) 97 %
14.01.2022 08:20 -2,0 C -2,0 C -1,7 C 92 % 1036,2 hPa 0,0 l/m 1,6 km/h (1 Bft) SW 225 0 min 0,000 mm 5 W/m -3,1 C -2,0 C 6,4 km/h (2 Bft) 98 %
14.01.2022 08:30 -2,2 C -2,2 C -2,0 C 92 % 1036,3 hPa 0,0 l/m 0,0 km/h (0 Bft) SW 225 0 min 0,000 mm 9 W/m -3,3 C -2,2 C 3,2 km/h (1 Bft) 96 %
14.01.2022 08:40 -2,1 C -2,3 C -2,1 C 92 % 1036,3 hPa 0,0 l/m 0,0 km/h (0 Bft) N 0 0 min 0,000 mm 12 W/m -3,2 C -2,1 C 0,0 km/h (0 Bft) 97 %
14.01.2022 08:50 -2,0 C -2,1 C -2,0 C 92 % 1036,4 hPa 0,0 l/m 0,0 km/h (0 Bft) N 0 0 min 0,000 mm 18 W/m -3,1 C -2,0 C 0,0 km/h (0 Bft) 97 %
14.01.2022 09:00 -2,1 C -2,1 C -2,0 C 92 % 1036,3 hPa 0,0 l/m 0,0 km/h (0 Bft) N 0 0 min 0,000 mm 23 W/m -3,2 C -2,1 C 0,0 km/h (0 Bft) 98 %
14.01.2022 09:10 -2,4 C -2,4 C -2,1 C 92 % 1036,4 hPa 0,0 l/m 0,0 km/h (0 Bft) N 0 0 min 0,000 mm 33 W/m -3,5 C -2,4 C 0,0 km/h (0 Bft) 98 %
14.01.2022 09:20 -2,4 C -2,4 C -2,4 C 92 % 1036,5 hPa 0,0 l/m 0,0 km/h (0 Bft) SW 225 0 min 0,000 mm 58 W/m -3,5 C -2,4 C 3,2 km/h (1 Bft) 96 %
14.01.2022 09:30 -2,2 C -2,4 C -2,2 C 92 % 1036,6 hPa 0,0 l/m 1,6 km/h (1 Bft) S-SW 202 0 min 0,000 mm 70 W/m -3,3 C -2,2 C 8,0 km/h (2 Bft) 98 %
14.01.2022 09:40 -2,1 C -2,2 C -2,1 C 92 % 1036,7 hPa 0,0 l/m 3,2 km/h (1 Bft) S-SW 202 0 min 0,000 mm 65 W/m -3,2 C -2,1 C 8,0 km/h (2 Bft) 97 %
14.01.2022 09:50 -2,1 C -2,1 C -2,0 C 92 % 1036,5 hPa 0,0 l/m 1,6 km/h (1 Bft) S 180 0 min 0,000 mm 56 W/m -3,2 C -2,1 C 4,8 km/h (1 Bft) 97 %
14.01.2022 10:00 -2,1 C -2,1 C -2,1 C 92 % 1036,6 hPa 0,0 l/m 0,0 km/h (0 Bft) S 180 0 min 0,025 mm 70 W/m -3,2 C -2,1 C 4,8 km/h (1 Bft) 98 %
14.01.2022 10:10 -2,1 C -2,1 C -2,1 C 92 % 1036,6 hPa 0,0 l/m 0,0 km/h (0 Bft) N 0 0 min 0,000 mm 91 W/m -3,2 C -2,1 C 0,0 km/h (0 Bft) 98 %
14.01.2022 10:20 -2,1 C -2,1 C -2,1 C 92 % 1036,6 hPa 0,0 l/m 0,0 km/h (0 Bft) N 0 0 min 0,000 mm 91 W/m -3,2 C -2,1 C 0,0 km/h (0 Bft) 98 %
14.01.2022 10:30 -1,9 C -2,1 C -1,9 C 92 % 1036,6 hPa 0,0 l/m 0,0 km/h (0 Bft) N 0 10 min 0,000 mm 153 W/m -3,0 C -1,9 C 0,0 km/h (0 Bft) 98 %
14.01.2022 10:40 -1,8 C -1,9 C -1,8 C 92 % 1036,6 hPa 0,0 l/m 0,0 km/h (0 Bft) N 0 10 min 0,000 mm 153 W/m -2,9 C -1,8 C 0,0 km/h (0 Bft) 98 %
14.01.2022 10:50 -1,7 C -1,8 C -1,7 C 92 % 1036,4 hPa 0,0 l/m 0,0 km/h (0 Bft) N 0 10 min 0,000 mm 185 W/m -2,8 C -1,7 C 0,0 km/h (0 Bft) 97 %
14.01.2022 11:00 -1,5 C -1,7 C -1,5 C 92 % 1036,4 hPa 0,0 l/m 0,0 km/h (0 Bft) N 0 10 min 0,025 mm 229 W/m -2,6 C -1,5 C 0,0 km/h (0 Bft) 97 %
14.01.2022 11:10 -1,1 C -1,5 C -1,1 C 92 % 1036,4 hPa 0,0 l/m 0,0 km/h (0 Bft) N 0 10 min 0,000 mm 246 W/m -2,2 C -1,1 C 0,0 km/h (0 Bft) 97 %
14.01.2022 11:20 -0,7 C -1,1 C -0,7 C 92 % 1036,4 hPa 0,0 l/m 0,0 km/h (0 Bft) N 0 10 min 0,000 mm 253 W/m -1,8 C -0,7 C 0,0 km/h (0 Bft) 98 %
14.01.2022 11:30 -0,5 C -0,7 C -0,5 C 92 % 1036,3 hPa 0,0 l/m 0,0 km/h (0 Bft) S 180 10 min 0,000 mm 264 W/m -1,6 C -0,5 C 4,8 km/h (1 Bft) 97 %
14.01.2022 11:40 -0,3 C -0,5 C -0,3 C 92 % 1036,3 hPa 0,0 l/m 1,6 km/h (1 Bft) S 180 10 min 0,000 mm 264 W/m -1,4 C -0,3 C 4,8 km/h (1 Bft) 98 %
14.01.2022 11:50 -0,1 C -0,3 C -0,1 C 92 % 1036,3 hPa 0,0 l/m 0,0 km/h (0 Bft) S 180 10 min 0,000 mm 262 W/m -1,2 C -0,1 C 6,4 km/h (2 Bft) 86 %
14.01.2022 12:00 0,1 C -0,1 C 0,1 C 92 % 1036,1 hPa 0,0 l/m 1,6 km/h (1 Bft) S 180 10 min 0,076 mm 264 W/m -1,0 C 0,1 C 6,4 km/h (2 Bft) 97 %
14.01.2022 12:10 0,3 C 0,1 C 0,3 C 92 % 1036,1 hPa 0,0 l/m 3,2 km/h (1 Bft) S 180 10 min 0,000 mm 274 W/m -0,8 C 0,3 C 8,0 km/h (2 Bft) 97 %
14.01.2022 12:20 0,5 C 0,3 C 0,5 C 92 % 1035,9 hPa 0,0 l/m 1,6 km/h (1 Bft) S 180 10 min 0,000 mm 274 W/m -0,6 C 0,5 C 4,8 km/h (1 Bft) 98 %
14.01.2022 12:30 0,8 C 0,5 C 0,8 C 92 % 1035,8 hPa 0,0 l/m 1,6 km/h (1 Bft) S 180 10 min 0,000 mm 255 W/m -0,3 C 0,8 C 6,4 km/h (2 Bft) 99 %
14.01.2022 12:40 0,8 C 0,8 C 0,8 C 93 % 1035,7 hPa 0,0 l/m 1,6 km/h (1 Bft) S 180 10 min 0,000 mm 239 W/m -0,2 C 0,8 C 6,4 km/h (2 Bft) 100 %
14.01.2022 12:50 1,1 C 0,9 C 1,1 C 93 % 1035,5 hPa 0,0 l/m 1,6 km/h (1 Bft) S-SO 157 10 min 0,000 mm 279 W/m 0,1 C 1,1 C 9,7 km/h (2 Bft) 79 %
14.01.2022 13:10 1,4 C 0,9 C 1,4 C 92 % 1035,1 hPa 0,0 l/m 1,9 km/h (1 Bft) S 181 0 min 0,077 mm 100 W/m 0,2 C 1,4 C 8,0 km/h (2 Bft) 98 %
14.01.2022 13:20 1,9 C 1,4 C 1,9 C 92 % 1035,0 hPa 0,0 l/m 0,0 km/h (0 Bft) S 188 10 min 0,000 mm 264 W/m 0,7 C 1,9 C 1,6 km/h (1 Bft) 97 %
14.01.2022 13:30 2,3 C 1,9 C 2,3 C 90 % 1034,9 hPa 0,0 l/m 0,0 km/h (0 Bft) S 189 0 min 0,000 mm 151 W/m 0,8 C 2,3 C 0,0 km/h (0 Bft) 98 %
14.01.2022 13:40 2,4 C 2,3 C 2,4 C 89 % 1034,9 hPa 0,0 l/m 0,3 km/h (0 Bft) S 189 10 min 0,000 mm 255 W/m 0,8 C 2,4 C 3,2 km/h (1 Bft) 97 %
14.01.2022 13:50 2,6 C 2,4 C 2,6 C 89 % 1034,6 hPa 0,0 l/m 2,1 km/h (1 Bft) S 184 0 min 0,000 mm 113 W/m 1,0 C 2,6 C 8,0 km/h (2 Bft) 98 %
14.01.2022 14:00 2,6 C 2,5 C 2,6 C 89 % 1034,4 hPa 0,0 l/m 3,0 km/h (1 Bft) S 180 10 min 0,051 mm 207 W/m 1,0 C 2,6 C 9,7 km/h (2 Bft) 98 %
14.01.2022 14:10 2,6 C 2,6 C 2,6 C 88 % 1034,4 hPa 0,0 l/m 3,0 km/h (1 Bft) S 185 10 min 0,000 mm 227 W/m 0,8 C 2,6 C 8,0 km/h (2 Bft) 100 %
14.01.2022 14:20 2,7 C 2,6 C 2,7 C 88 % 1034,2 hPa 0,0 l/m 1,4 km/h (1 Bft) S 186 10 min 0,000 mm 155 W/m 0,9 C 2,7 C 8,0 km/h (2 Bft) 100 %
14.01.2022 14:30 2,9 C 2,7 C 2,9 C 88 % 1034,3 hPa 0,0 l/m 2,5 km/h (1 Bft) S 175 10 min 0,000 mm 197 W/m 1,1 C 2,9 C 8,0 km/h (2 Bft) 100 %
14.01.2022 14:40 3,1 C 2,9 C 3,1 C 87 % 1034,2 hPa 0,0 l/m 2,5 km/h (1 Bft) S-SO 168 10 min 0,000 mm 178 W/m 1,2 C 3,1 C 9,7 km/h (2 Bft) 100 %
14.01.2022 14:50 3,3 C 3,1 C 3,3 C 86 % 1034,1 hPa 0,0 l/m 1,9 km/h (1 Bft) S 178 10 min 0,000 mm 163 W/m 1,2 C 3,3 C 8,0 km/h (2 Bft) 100 %
14.01.2022 15:00 3,5 C 3,3 C 3,5 C 85 % 1034,2 hPa 0,0 l/m 0,3 km/h (0 Bft) S 186 0 min 0,051 mm 144 W/m 1,2 C 3,5 C 6,4 km/h (2 Bft) 100 %
14.01.2022 15:10 3,7 C 3,5 C 3,7 C 85 % 1034,0 hPa 0,0 l/m 0,0 km/h (0 Bft) S 184 0 min 0,000 mm 125 W/m 1,4 C 3,7 C 1,6 km/h (1 Bft) 100 %
14.01.2022 15:20 3,8 C 3,7 C 3,8 C 84 % 1033,9 hPa 0,0 l/m 0,6 km/h (0 Bft) S 181 0 min 0,000 mm 107 W/m 1,4 C 3,8 C 4,8 km/h (1 Bft) 100 %
14.01.2022 15:30 3,9 C 3,7 C 3,9 C 84 % 1033,9 hPa 0,0 l/m 0,0 km/h (0 Bft) S 181 0 min 0,000 mm 88 W/m 1,4 C 3,9 C 0,0 km/h (0 Bft) 100 %
14.01.2022 15:40 4,0 C 3,9 C 4,1 C 83 % 1033,9 hPa 0,0 l/m 0,0 km/h (0 Bft) S 181 0 min 0,000 mm 69 W/m 1,4 C 4,0 C 0,0 km/h (0 Bft) 99 %
14.01.2022 15:50 4,0 C 3,9 C 4,0 C 83 % 1033,8 hPa 0,0 l/m 0,0 km/h (0 Bft) S 181 0 min 0,000 mm 51 W/m 1,4 C 4,0 C 0,0 km/h (0 Bft) 98 %
14.01.2022 16:00 4,0 C 4,0 C 4,0 C 83 % 1033,6 hPa 0,0 l/m 0,0 km/h (0 Bft) S 181 0 min 0,025 mm 39 W/m 1,4 C 4,0 C 0,0 km/h (0 Bft) 97 %
14.01.2022 16:10 4,0 C 3,9 C 4,0 C 83 % 1033,7 hPa 0,0 l/m 0,0 km/h (0 Bft) S 181 0 min 0,000 mm 25 W/m 1,4 C 4,0 C 0,0 km/h (0 Bft) 96 %
14.01.2022 16:20 4,0 C 3,9 C 4,0 C 83 % 1033,6 hPa 0,0 l/m 0,0 km/h (0 Bft) S 181 0 min 0,000 mm 19 W/m 1,4 C 4,0 C 0,0 km/h (0 Bft) 92 %
14.01.2022 16:30 4,1 C 4,0 C 4,1 C 82 % 1033,6 hPa 0,0 l/m 0,0 km/h (0 Bft) S 181 0 min 0,000 mm 16 W/m 1,3 C 4,1 C 0,0 km/h (0 Bft) 100 %
14.01.2022 16:40 4,1 C 4,1 C 4,2 C 82 % 1033,7 hPa 0,0 l/m 0,0 km/h (0 Bft) S 181 0 min 0,000 mm 11 W/m 1,3 C 4,1 C 0,0 km/h (0 Bft) 100 %
14.01.2022 16:50 3,6 C 3,6 C 4,1 C 83 % 1033,8 hPa 0,0 l/m 0,0 km/h (0 Bft) S 181 0 min 0,000 mm 5 W/m 1,0 C 3,6 C 0,0 km/h (0 Bft) 100 %
14.01.2022 17:00 3,1 C 3,1 C 3,6 C 84 % 1033,7 hPa 0,0 l/m 0,0 km/h (0 Bft) S 181 0 min 0,000 mm 0 W/m 0,7 C 3,1 C 0,0 km/h (0 Bft) 98 %
14.01.2022 17:10 2,7 C 2,7 C 3,1 C 84 % 1033,8 hPa 0,0 l/m 0,0 km/h (0 Bft) S 181 0 min 0,000 mm 0 W/m 0,3 C 2,7 C 0,0 km/h (0 Bft) 100 %
14.01.2022 17:20 2,3 C 2,3 C 2,7 C 85 % 1033,8 hPa 0,0 l/m 0,0 km/h (0 Bft) S 181 0 min 0,000 mm 0 W/m 0,0 C 2,3 C 0,0 km/h (0 Bft) 100 %
14.01.2022 17:30 1,9 C 1,9 C 2,3 C 85 % 1033,7 hPa 0,0 l/m 0,0 km/h (0 Bft) S 181 0 min 0,000 mm 0 W/m -0,3 C 1,9 C 0,0 km/h (0 Bft) 100 %
14.01.2022 17:40 1,5 C 1,5 C 1,9 C 86 % 1033,7 hPa 0,0 l/m 0,0 km/h (0 Bft) S 181 0 min 0,000 mm 0 W/m -0,6 C 1,5 C 0,0 km/h (0 Bft) 100 %
14.01.2022 17:50 1,1 C 1,1 C 1,5 C 87 % 1033,6 hPa 0,0 l/m 0,0 km/h (0 Bft) S 181 0 min 0,000 mm 0 W/m -0,8 C 1,1 C 0,0 km/h (0 Bft) 100 %
14.01.2022 18:00 0,8 C 0,8 C 1,1 C 88 % 1033,7 hPa 0,0 l/m 0,0 km/h (0 Bft) S 181 0 min 0,000 mm 0 W/m -1,0 C 0,8 C 0,0 km/h (0 Bft) 100 %
14.01.2022 18:10 0,6 C 0,6 C 0,8 C 89 % 1033,7 hPa 0,0 l/m 0,0 km/h (0 Bft) S 181 0 min 0,000 mm 0 W/m -1,0 C 0,6 C 0,0 km/h (0 Bft) 99 %
14.01.2022 18:20 0,3 C 0,3 C 0,6 C 90 % 1033,6 hPa 0,0 l/m 0,0 km/h (0 Bft) S 181 0 min 0,000 mm 0 W/m -1,1 C 0,3 C 0,0 km/h (0 Bft) 100 %
14.01.2022 18:30 0,2 C 0,2 C 0,3 C 90 % 1033,6 hPa 0,0 l/m 0,0 km/h (0 Bft) S 181 0 min 0,000 mm 0 W/m -1,2 C 0,2 C 0,0 km/h (0 Bft) 100 %
14.01.2022 18:40 0,1 C 0,1 C 0,2 C 91 % 1033,4 hPa 0,0 l/m 0,0 km/h (0 Bft) S 181 0 min 0,000 mm 0 W/m -1,2 C 0,1 C 0,0 km/h (0 Bft) 100 %
14.01.2022 18:50 -0,1 C -0,1 C 0,1 C 91 % 1033,4 hPa 0,0 l/m 0,0 km/h (0 Bft) S 181 0 min 0,000 mm 0 W/m -1,4 C -0,1 C 0,0 km/h (0 Bft) 100 %
14.01.2022 19:00 -0,3 C -0,3 C -0,1 C 91 % 1033,4 hPa 0,0 l/m 0,0 km/h (0 Bft) S 181 0 min 0,000 mm 0 W/m -1,6 C -0,3 C 0,0 km/h (0 Bft) 100 %
14.01.2022 19:10 -0,4 C -0,4 C -0,3 C 91 % 1033,5 hPa 0,0 l/m 0,0 km/h (0 Bft) S 181 0 min 0,000 mm 0 W/m -1,7 C -0,4 C 0,0 km/h (0 Bft) 100 %
14.01.2022 19:20 -0,6 C -0,6 C -0,4 C 92 % 1033,6 hPa 0,0 l/m 0,0 km/h (0 Bft) S 181 0 min 0,000 mm 0 W/m -1,7 C -0,6 C 0,0 km/h (0 Bft) 100 %
14.01.2022 19:30 -0,8 C -0,8 C -0,6 C 91 % 1033,5 hPa 0,0 l/m 0,0 km/h (0 Bft) S 181 0 min 0,000 mm 0 W/m -2,1 C -0,8 C 0,0 km/h (0 Bft) 100 %
14.01.2022 19:40 -1,0 C -1,0 C -0,8 C 92 % 1033,6 hPa 0,0 l/m 0,0 km/h (0 Bft) S 181 0 min 0,000 mm 0 W/m -2,1 C -1,0 C 0,0 km/h (0 Bft) 100 %
14.01.2022 19:50 -1,2 C -1,2 C -1,0 C 92 % 1033,5 hPa 0,0 l/m 0,0 km/h (0 Bft) S 181 0 min 0,000 mm 0 W/m -2,3 C -1,2 C 0,0 km/h (0 Bft) 100 %
14.01.2022 20:00 -1,4 C -1,4 C -1,2 C 92 % 1033,6 hPa 0,0 l/m 0,0 km/h (0 Bft) S 181 0 min 0,000 mm 0 W/m -2,5 C -1,4 C 0,0 km/h (0 Bft) 91 %
14.01.2022 20:10 -1,6 C -1,7 C -1,4 C 92 % 1033,6 hPa 0,0 l/m 0,0 km/h (0 Bft) S 181 0 min 0,000 mm 0 W/m -2,7 C -1,6 C 0,0 km/h (0 Bft) 100 %
14.01.2022 20:20 -1,7 C -1,7 C -1,6 C 92 % 1033,5 hPa 0,0 l/m 0,0 km/h (0 Bft) S 181 0 min 0,000 mm 0 W/m -2,8 C -1,7 C 0,0 km/h (0 Bft) 100 %
14.01.2022 20:30 -1,7 C -1,7 C -1,7 C 92 % 1033,4 hPa 0,0 l/m 0,0 km/h (0 Bft) S 181 0 min 0,000 mm 0 W/m -2,8 C -1,7 C 0,0 km/h (0 Bft) 100 %
14.01.2022 20:40 -1,8 C -1,8 C -1,7 C 92 % 1033,3 hPa 0,0 l/m 0,0 km/h (0 Bft) S 181 0 min 0,000 mm 0 W/m -2,9 C -1,8 C 0,0 km/h (0 Bft) 100 %
14.01.2022 20:50 -1,8 C -1,8 C -1,8 C 92 % 1033,3 hPa 0,0 l/m 0,0 km/h (0 Bft) S 181 0 min 0,000 mm 0 W/m -2,9 C -1,8 C 0,0 km/h (0 Bft) 99 %
14.01.2022 21:00 -1,8 C -1,8 C -1,7 C 92 % 1033,1 hPa 0,0 l/m 0,0 km/h (0 Bft) S 181 0 min 0,000 mm 0 W/m -2,9 C -1,8 C 0,0 km/h (0 Bft) 100 %
14.01.2022 21:10 -1,8 C -1,8 C -1,8 C 92 % 1033,0 hPa 0,0 l/m 0,0 km/h (0 Bft) N 0 0 min 0,000 mm 0 W/m -2,9 C -1,8 C 0,0 km/h (0 Bft) 98 %
14.01.2022 21:20 -2,0 C -2,0 C -1,8 C 93 % 1033,0 hPa 0,0 l/m 0,0 km/h (0 Bft) N 0 0 min 0,000 mm 0 W/m -3,0 C -2,0 C 0,0 km/h (0 Bft) 98 %
14.01.2022 21:30 -2,1 C -2,1 C -2,0 C 93 % 1033,1 hPa 0,0 l/m 0,0 km/h (0 Bft) N 0 0 min 0,000 mm 0 W/m -3,1 C -2,1 C 0,0 km/h (0 Bft) 97 %
14.01.2022 21:40 -2,2 C -2,2 C -2,1 C 93 % 1032,9 hPa 0,0 l/m 0,0 km/h (0 Bft) N 0 0 min 0,000 mm 0 W/m -3,2 C -2,2 C 0,0 km/h (0 Bft) 98 %
14.01.2022 21:50 -2,3 C -2,3 C -2,2 C 93 % 1032,9 hPa 0,0 l/m 0,0 km/h (0 Bft) N 0 0 min 0,000 mm 0 W/m -3,3 C -2,3 C 0,0 km/h (0 Bft) 97 %
14.01.2022 22:00 -2,4 C -2,4 C -2,3 C 93 % 1032,9 hPa 0,0 l/m 0,0 km/h (0 Bft) N 0 0 min 0,000 mm 0 W/m -3,4 C -2,4 C 0,0 km/h (0 Bft) 98 %
14.01.2022 22:10 -2,6 C -2,6 C -2,4 C 93 % 1032,8 hPa 0,0 l/m 0,0 km/h (0 Bft) N 0 0 min 0,000 mm 0 W/m -3,6 C -2,6 C 0,0 km/h (0 Bft) 97 %
14.01.2022 22:20 -2,5 C -2,6 C -2,5 C 93 % 1032,7 hPa 0,0 l/m 0,0 km/h (0 Bft) N 0 0 min 0,000 mm 0 W/m -3,5 C -2,5 C 0,0 km/h (0 Bft) 99 %
14.01.2022 22:30 -2,5 C -2,6 C -2,5 C 93 % 1032,8 hPa 0,0 l/m 0,0 km/h (0 Bft) N 0 0 min 0,000 mm 0 W/m -3,5 C -2,5 C 0,0 km/h (0 Bft) 100 %
14.01.2022 22:40 -2,6 C -2,6 C -2,5 C 93 % 1032,8 hPa 0,0 l/m 0,0 km/h (0 Bft) N 0 0 min 0,000 mm 0 W/m -3,6 C -2,6 C 0,0 km/h (0 Bft) 100 %
14.01.2022 22:50 -2,7 C -2,7 C -2,7 C 93 % 1032,7 hPa 0,0 l/m 0,0 km/h (0 Bft) N 0 0 min 0,000 mm 0 W/m -3,7 C -2,7 C 0,0 km/h (0 Bft) 100 %
14.01.2022 23:00 -2,8 C -2,8 C -2,7 C 93 % 1032,6 hPa 0,0 l/m 0,0 km/h (0 Bft) N 0 0 min 0,000 mm 0 W/m -3,8 C -2,8 C 0,0 km/h (0 Bft) 99 %
14.01.2022 23:10 -2,8 C -2,8 C -2,8 C 92 % 1032,7 hPa 0,0 l/m 0,0 km/h (0 Bft) N 0 0 min 0,000 mm 0 W/m -3,9 C -2,8 C 0,0 km/h (0 Bft) 100 %
14.01.2022 23:20 -2,8 C -2,8 C -2,8 C 92 % 1032,7 hPa 0,0 l/m 0,0 km/h (0 Bft) N 0 0 min 0,000 mm 0 W/m -3,9 C -2,8 C 0,0 km/h (0 Bft) 100 %
14.01.2022 23:30 -2,8 C -2,8 C -2,8 C 92 % 1032,7 hPa 0,0 l/m 0,0 km/h (0 Bft) N 0 0 min 0,000 mm 0 W/m -3,9 C -2,8 C 0,0 km/h (0 Bft) 100 %
14.01.2022 23:40 -2,9 C -2,9 C -2,8 C 92 % 1032,5 hPa 0,0 l/m 0,0 km/h (0 Bft) N 0 0 min 0,000 mm 0 W/m -4,0 C -2,9 C 0,0 km/h (0 Bft) 98 %
14.01.2022 23:50 -2,9 C -2,9 C -2,8 C 93 % 1032,4 hPa 0,0 l/m 0,0 km/h (0 Bft) N 0 0 min 0,000 mm 0 W/m -3,9 C -2,9 C 0,0 km/h (0 Bft) 89 %
_ Min-Zeit 07:00 07:00 07:00 16:30 23:50 - 00:00 - - - - - 07:00 07:00 00:00 12:50
Minimum _ -3,2 C -3,2 C -3,1 C 82 % 1032,4 hPa - 0,0 km/h (0 Bft) - - - - - -4,3 C -3,2 C 0,0 km/h (0 Bft) 79 %
_ Max-Zeit 16:40 16:40 16:40 00:50 00:00 00:00 09:40 - - 10:30 13:10 12:50 15:30 16:30 12:50 00:00
Maximum _ 4,2 C 4,1 C 4,2 C 93 % 1038,4 hPa 0,0 l/m 3,2 km/h
S-SW (1 Bft)
- - 10 min 0,077 mm 279 W/m 1,4 C 4,1 C 9,7 km/h
S (2 Bft)
100 %
Durchschnitt _ -0,9 C -1,0 C -0,9 C 91 % 1035,3 hPa #0,0 l/m 0,3 km/h (0 Bft) S - #3:50 h #0,330 mm 135 W/m -2,3 C -0,9 C 1,4 km/h (1 Bft) 98 %
PRIVATE WETTERSTATION BILLIGHEIM-ALLFELD - www.neckar-odenwald-wetter.de - Holger Sonntag